Theta_e
295 295 294 294 294 293 293 293 292 292 291 291 291 291 290 290 290 290 291 290 291 291 291 291 292 292 293 293 293 294 294 295 295 296 296 296 296 297 297 297 298 298
293 293 292 292 292 292 291 291 290 290 290 290 290 289 289 289 289 289 289 289 289 289 289 289 289 290 290 290 291 291 291 291 292 292 293 294 294 295 295 296 296 297
292 291 291 291 291 291 290 290 290 289 289 289 289 289 289 289 289 289 289 289 289 289 288 288 288 288 288 289 289 289 289 289 289 289 289 290 291 291 292 293 294 295
290 290 290 290 290 290 290 289 289 289 289 289 289 289 289 289 289 289 289 289 289 289 288 288 288 288 288 288 288 288 288 288 288 288 288 288 288 288 289 289 290 291
289 289 289 289 289 289 289 289 289 289 289 289 289 289 289 289 289 289 289 289 289 289 289 289 288 288 288 288 288 288 288 288 288 288 288 288 288 288 287 287 288 288
289 289 289 288 289 289 289 289 289 289 289 289 289 289 289 289 289 289 289 289 289 289 289 289 289 289 289 289 289 289 288 288 288 288 288 288 288 288 287 287 287 287
289 289 289 289 289 289 289 289 289 289 289 289 289 289 289 289 289 289 289 289 289 289 289 289 289 289 289 289 289 289 289 289 289 288 288 288 288 288 288 288 287 287
290 290 290 289 289 289 289 289 289 289 289 289 289 289 289 289 289 289 289 289 289 289 289 289 289 289 289 289 289 288 288 288 288 288 288 288 288 288 288 288 288 288
290 290 290 290 290 290 289 289 289 289 289 289 289 289 288 288 288 288 288 288 288 288 288 287 287 287 287 287 287 287 287 287 287 287 287 287 287 287 287 287 288 288
289 289 289 289 289 289 289 289 289 289 289 289 288 288 288 288 288 287 287 287 287 286 286 286 286 286 286 286 286 286 286 286 286 286 286 286 286 286 286 286 287 287
289 289 289 289 289 289 289 289 289 289 289 289 288 288 287 287 287 287 286 286 286 286 286 286 285 285 285 285 285 285 285 285 285 285 286 286 286 286 286 286 286 286
289 289 289 289 289 289 289 289 289 289 289 289 288 287 287 287 286 286 286 286 286 285 285 285 285 285 285 285 285 285 285 285 285 285 285 285 286 286 286 286 286 286
289 289 289 289 289 289 289 289 289 289 289 289 288 287 287 286 286 286 285 285 285 285 285 285 285 284 284 284 284 284 284 284 284 284 285 285 285 285 286 286 286 285
290 290 290 289 289 289 289 289 289 289 289 288 287 287 286 286 285 285 285 284 284 284 284 284 284 284 284 284 284 284 284 284 284 284 284 285 285 285 285 285 285 285
289 289 289 289 289 289 289 289 289 289 288 288 287 286 286 285 285 284 284 284 284 284 284 284 284 284 284 284 283 283 283 283 283 283 283 284 284 284 285 285 284 284
288 288 288 288 288 288 288 288 288 288 287 287 286 285 285 284 284 283 283 283 283 284 284 284 284 284 284 283 283 282 282 282 282 282 282 282 283 283 284 284 284 283
288 288 288 288 287 287 287 287 287 287 286 285 285 284 284 283 283 283 283 283 284 284 284 284 284 284 283 283 282 281 281 280 280 281 281 281 281 281 281 282 282 282
288 288 287 287 287 287 286 286 286 285 285 284 284 283 283 283 283 283 283 284 284 284 284 284 284 283 283 282 281 281 280 278 278 279 279 279 279 279 278 279 279 279
287 287 287 287 286 285 285 285 284 284 284 283 283 283 283 283 283 283 284 284 284 284 284 284 283 283 282 281 280 279 278 277 277 277 277 277 277 277 276 276 276 277
287 287 286 286 285 284 284 284 283 283 283 283 283 283 283 283 283 283 283 283 283 283 283 283 282 282 280 279 278 277 276 275 275 276 276 275 275 275 274 275 275 274
286 286 285 284 284 283 283 283 283 283 282 282 283 283 283 283 283 283 283 283 282 282 282 282 281 280 279 278 277 276 275 274 274 274 274 274 274 273 273 273 273 273
285 285 284 283 283 283 283 283 282 282 282 282 282 283 283 282 282 282 282 282 281 281 281 281 280 279 278 277 276 275 274 274 273 273 273 273 272 272 271 272 271 271
284 284 283 283 283 283 282 282 282 282 282 282 282 282 282 282 282 282 281 281 280 280 279 279 279 277 276 275 274 274 273 273 272 272 272 271 271 270 270 269 269 269
283 283 282 282 282 282 282 282 282 282 282 282 282 282 282 282 281 281 280 280 279 279 278 277 277 276 274 274 273 273 272 272 271 271 270 270 270 269 269 268 268 268
283 282 282 282 282 281 281 281 281 281 281 281 281 281 281 281 280 280 280 279 278 278 276 276 276 275 274 273 273 272 272 271 270 270 269 269 269 269 269 269 269 269
282 281 281 281 281 281 281 281 281 281 281 281 281 280 280 280 279 279 279 278 277 276 276 275 275 274 274 273 272 272 271 270 270 269 269 269 269 268 269 269 269 269
Wind_Speed
11 12 13 14 14 15 16 16 17 18 18 18 19 19 18 18 17 17 17 17 17 17 17 18 18 18 18 19 19 19 19 18 18 18 18 18 19 21 23 25 26 28
10 11 12 12 13 14 15 16 17 17 18 18 18 18 18 18 19 19 19 19 19 19 19 19 19 19 19 19 19 20 20 21 20 19 19 18 18 19 20 21 23 25
8 9 10 11 12 13 14 15 15 16 16 16 16 17 17 18 18 19 19 20 20 20 20 21 21 21 21 21 20 21 21 22 22 22 22 20 20 20 20 20 21 22
6 7 8 9 10 10 11 12 13 14 15 15 16 18 18 19 20 20 21 21 21 22 22 22 23 23 23 23 23 23 23 23 24 24 24 23 22 22 22 22 22 21
7 8 9 10 10 11 11 12 12 13 14 15 16 17 18 19 20 21 22 23 24 25 25 25 25 25 26 26 25 25 25 25 25 26 27 26 25 25 25 24 25 24
9 9 10 11 11 12 13 14 15 16 16 17 18 19 19 20 21 22 23 24 25 26 27 28 28 28 29 29 29 28 28 28 28 28 29 29 28 29 28 28 28 28
11 11 12 13 14 15 16 17 19 20 21 22 23 23 24 24 24 24 25 25 25 26 27 28 29 29 30 31 32 32 32 31 31 31 31 31 31 31 30 31 32 32
12 13 14 15 16 17 19 20 22 23 24 25 25 26 27 27 27 27 27 28 27 28 28 28 29 29 30 31 32 33 33 33 33 33 33 33 33 33 32 32 32 33
14 15 15 16 17 18 20 22 24 25 26 27 27 27 28 28 28 29 29 29 29 29 29 29 29 30 30 31 32 33 34 34 35 35 36 36 36 36 35 35 35 35
16 17 18 19 21 22 24 26 27 28 29 31 31 31 30 29 29 29 29 30 30 31 31 31 32 32 32 33 34 36 37 37 37 38 38 38 39 39 39 38 38 39
19 20 21 23 25 27 28 30 31 33 34 35 36 36 35 34 33 32 32 33 34 35 36 36 37 38 38 39 39 40 41 42 42 42 42 42 42 42 42 42 42 42
21 23 24 26 28 29 31 32 33 35 36 37 38 37 36 36 35 35 36 37 38 39 40 41 42 43 45 45 46 46 47 47 47 47 47 47 47 47 47 47 47 46
24 26 28 29 31 32 33 34 35 36 37 38 38 37 36 35 35 36 38 39 41 42 44 45 46 48 48 49 49 49 49 50 50 51 51 51 51 51 51 51 51 51
26 28 30 31 33 34 35 36 36 37 38 39 39 38 36 36 38 39 40 42 43 45 46 47 48 49 49 49 49 50 50 50 51 52 53 54 54 54 54 54 54 53
27 29 30 31 33 34 35 36 37 38 39 40 39 37 37 39 41 43 44 45 45 46 47 47 47 47 47 48 48 49 49 50 51 52 53 54 55 56 57 56 55 55
27 28 30 31 33 34 36 37 38 39 39 39 38 38 39 41 43 44 45 45 46 46 46 46 46 46 47 48 48 49 50 51 52 53 53 54 56 57 58 58 57 56
27 29 30 32 33 35 36 37 37 37 37 37 38 40 42 43 43 44 44 45 45 46 46 46 47 48 49 50 50 50 51 51 52 54 55 55 55 56 57 57 57 56
28 30 32 33 34 35 35 35 35 35 36 38 40 41 42 43 43 44 44 44 45 46 47 48 50 51 51 52 53 52 52 51 52 54 55 55 55 54 54 54 54 53
29 31 32 33 33 33 33 33 35 37 38 40 40 41 42 43 43 43 44 45 46 47 49 50 52 53 53 53 53 52 51 49 50 52 52 52 52 51 50 50 50 50
30 31 31 32 31 32 33 34 36 38 39 39 40 41 42 43 43 44 44 45 46 48 49 51 52 52 51 51 50 49 47 45 46 48 49 49 48 47 46 47 48 47
30 30 30 31 31 32 34 36 37 38 38 39 40 41 42 42 43 44 45 46 47 48 49 51 51 49 48 47 46 45 43 42 43 44 45 46 45 43 43 43 43 43
30 30 30 31 32 34 35 36 37 37 38 39 40 40 41 42 42 44 45 46 46 47 48 49 49 47 45 44 43 41 40 40 41 41 42 43 42 41 40 39 38 37
30 30 31 32 33 35 35 36 36 37 37 38 39 40 41 42 43 44 44 45 46 46 47 48 48 45 43 42 40 38 37 37 38 38 39 40 40 39 37 36 35 34
30 30 31 33 34 34 35 35 35 36 36 37 38 40 41 42 43 44 44 44 45 45 45 46 46 44 41 40 37 35 34 34 35 36 37 38 38 37 35 34 34 33
30 31 32 33 33 33 33 34 34 35 36 36 38 39 41 42 42 43 44 44 43 43 42 42 43 42 39 37 35 32 31 31 32 33 35 36 37 37 35 34 35 35
31 32 32 32 32 32 32 33 33 34 35 36 38 39 40 41 41 42 43 43 42 41 40 39 40 40 37 34 32 30 28 28 29 31 34 36 36 36 37 38 38 39
Wind_Direction
19 16 14 12 11 12 10 8 7 6 4 3 2 2 1 360 358 355 353 352 349 346 343 341 339 337 336 336 337 337 337 337 336 333 331 327 318 307 299 292 288 285
13 12 10 7 7 6 4 4 2 0 359 358 357 355 352 351 350 349 347 346 344 342 340 337 335 334 333 332 332 332 333 332 331 329 330 332 328 322 317 309 300 293
8 6 3 0 1 359 359 358 355 352 351 348 346 343 342 341 340 340 339 338 337 336 335 334 333 332 331 330 329 328 328 327 327 326 326 328 326 324 324 320 315 310
12 8 4 360 358 354 351 348 343 340 338 335 333 332 332 331 329 328 328 328 327 327 327 328 329 329 328 328 327 326 325 324 323 321 319 321 321 320 320 319 316 316
14 9 5 360 356 353 347 342 336 333 330 327 325 323 322 321 319 319 318 318 318 319 319 320 321 323 323 323 323 323 322 321 320 319 316 315 315 315 316 316 313 313
9 4 1 355 350 346 340 335 332 329 327 325 323 321 319 317 316 314 313 311 311 312 313 313 314 316 318 318 318 319 319 318 317 317 315 314 313 311 312 312 310 309
352 350 347 343 340 337 333 331 328 326 324 322 322 321 320 318 317 316 315 313 311 310 310 310 310 311 313 313 314 314 315 315 315 314 312 312 311 309 308 308 307 306
335 333 331 328 328 327 326 324 323 322 322 320 320 320 319 318 317 316 315 313 313 312 311 311 311 311 311 311 311 311 311 311 312 312 311 310 309 307 306 305 303 301
327 324 323 322 322 322 322 321 320 320 320 320 320 319 318 318 316 315 314 313 313 313 312 312 311 311 311 310 310 310 308 308 308 308 308 307 306 305 304 303 301 299
324 322 322 321 321 322 322 321 320 320 321 322 322 321 319 317 316 315 315 314 314 314 313 313 312 311 310 309 308 307 306 305 304 303 303 302 301 301 300 299 298 297
319 318 319 319 319 320 320 320 320 320 320 321 322 321 320 318 317 316 316 316 316 315 314 314 313 312 311 309 307 306 305 303 302 301 300 298 297 296 296 295 294 293
313 313 313 314 314 314 314 314 315 315 316 317 317 317 316 315 315 316 316 316 315 315 314 313 312 311 310 309 308 306 305 303 301 299 298 296 295 293 293 292 291 290
309 309 309 309 308 308 308 308 308 308 309 310 311 311 310 311 312 312 313 313 312 312 311 310 310 309 308 308 307 306 305 303 301 299 297 296 294 292 291 290 289 289
303 303 303 303 302 302 302 303 303 303 303 305 307 308 308 309 309 309 309 309 308 308 307 307 307 306 306 306 305 305 304 303 301 300 298 297 295 293 291 290 288 287
297 297 297 297 297 298 298 298 298 299 300 302 304 305 306 307 307 307 306 306 306 305 305 305 305 305 305 305 304 304 303 301 300 298 297 295 294 293 292 291 289 288
295 295 295 294 294 294 295 295 296 297 299 301 302 303 304 305 304 304 304 305 305 305 305 305 305 304 304 304 303 303 301 299 297 295 294 293 292 291 290 289 289 288
297 296 295 294 294 293 293 294 296 297 299 300 302 303 303 303 303 304 305 306 306 306 306 306 306 306 305 304 303 302 301 299 297 295 293 291 290 289 288 287 287 286
298 297 296 295 294 294 295 296 297 299 300 301 302 303 303 304 305 306 307 308 308 308 308 308 308 307 307 306 305 303 302 301 298 296 293 291 289 288 287 286 286 286
299 297 297 296 295 296 296 298 300 301 302 303 304 305 306 307 308 309 310 310 310 310 310 309 309 309 308 308 307 305 305 304 301 298 295 293 291 289 288 287 286 286
300 298 297 296 296 297 298 300 302 303 304 305 307 308 309 310 311 311 311 312 312 312 311 311 310 310 310 310 309 308 307 305 302 299 297 295 294 292 290 288 287 287
301 299 297 296 297 299 301 303 304 306 307 309 309 310 311 311 312 312 313 313 313 313 313 312 311 312 312 311 310 310 309 306 303 300 298 297 296 295 294 292 291 291
301 299 297 298 300 302 304 306 307 309 310 310 311 311 312 312 313 313 314 314 315 315 314 313 313 314 314 313 311 311 310 307 304 302 300 299 299 299 299 299 299 299
300 299 299 301 304 305 307 308 309 310 311 311 311 312 313 314 314 315 316 316 316 317 316 315 316 317 316 314 313 313 311 308 305 303 301 300 300 301 302 303 304 303
300 300 302 304 306 307 308 309 310 311 312 312 313 313 314 315 316 316 317 317 318 319 319 318 317 317 317 314 314 314 311 308 306 304 302 301 302 302 302 303 302 303
301 303 305 306 307 308 309 310 311 312 312 313 315 315 316 316 317 317 317 319 320 321 320 319 317 316 315 314 314 314 312 309 306 304 302 302 302 302 303 304 306 309
303 305 306 307 308 309 310 311 312 313 314 315 316 316 316 316 317 318 318 320 321 321 320 319 316 315 314 314 314 314 313 311 307 304 303 304 306 307 309 311 312 313